Regional Weather Roundup
Issued by NWS

Home | Current Version | Previous Version | Graphics & Text | Print | Product List | Glossary On
Versions: 1 2 3 4 5 6 7 8 9 10 11 12 13 14 15 16 17 18 19 20 21 22 23 24 25 26 27 28 29 30 31 32 33 34 35 36 37 38 39 40 41 42 43 44 45 46 47 48 49 50
000
ASUS43 KTOP 022059
RWRKS

WEATHER ROUNDUP FOR KANSAS
NATIONAL WEATHER SERVICE GOODLAND KS
400 PM CDT THU JUL 02 2015

NOTE:  "FAIR" INDICATES FEW OR NO CLOUDS BELOW 12,000 FEET WITH NO
SIGNIFICANT WEATHER AND/OR OBSTRUCTIONS TO VISIBILITY.

KSZ001>006-013>018-027>032-041>047-022200-
NORTHWEST KANSAS

CITY           SKY/WX    TMP DP  RH WIND       PRES   REMARKS
GOODLAND       SUNNY     85  57  38 N17G23    30.07F
HAYS           MOSUNNY   82  64  54 NW10G16   29.99S
HILL CITY      LGT RAIN  89  60  37 NE10      29.98F
RUSSELL        MOSUNNY   80  68  66 W6        29.97S
$$

KSZ061>065-074>080-084>089-022200-
SOUTHWEST KANSAS

CITY           SKY/WX    TMP DP  RH WIND       PRES   REMARKS
DODGE CITY     CLOUDY    75  67  76 NE16      30.02S
ELKHART          N/A     88  58  36 N6          N/A
GARDEN CITY    CLOUDY    80  69  69 E13       30.01S
GREAT BEND     CLOUDY    72  64  78 S8        29.99F
LIBERAL        MOSUNNY   90  63  40 NE8       30.01S
$$

KSZ066>073-081>083-090>101-022200-
SOUTHEAST KANSAS

CITY           SKY/WX    TMP DP  RH WIND       PRES   REMARKS
CHANUTE        CLOUDY    80  70  71 VRB3      29.89F
COFFEYVILLE    CLOUDY    82  72  71 NE15      29.85F
HUTCHINSON     RAIN      73  68  84 W14       29.99R
MEDICINE LODGE   N/A     80  70  71 N17G23    29.96R
NEWTON         CLOUDY    72  63  73 NW12G18   29.97R
PARSONS        CLOUDY    80  71  74 VRB5      29.89F
WICHITA INTL   CLOUDY    77  72  84 NW9       29.96R
WICHITA JABRA  LGT RAIN  76  72  87 N5        29.96R
WICHITA MCCONL CLOUDY    75  72  88 N8        29.96R
WINFIELD       CLOUDY    80  70  71 NE7       29.93R
$$

KSZ007>012-019>026-033>040-048>060-102>105-022200-
NORTHEAST KANSAS

CITY           SKY/WX    TMP DP  RH WIND       PRES   REMARKS
CONCORDIA      PTSUNNY   82  71  69 SW10      29.92F
EMPORIA        CLOUDY    79  68  69 NE6       29.90F
LAWRENCE       CLOUDY    73  68  84 NE7       29.93R
MANHATTAN      CLOUDY    81  71  71 CALM      29.91S
OLATHE IND     CLOUDY    74  69  85 NE8       29.93S
OLATHE EXE     CLOUDY    71  68  90 NE8       29.92S
SALINA         CLOUDY    82  72  71 W7        29.95R
TOPEKA BILLARD CLOUDY    74  69  85 NE7       29.92S
TOPEKA FORBES  CLOUDY    78  68  71 NE5       29.92S
$$



USA.gov is the U.S. government's official web portal to all federal, state and local government web resources and services.